Wind_Speed
98 98 97 96 95 94 93 92 90 89 88 87 87 87 87 85 85 84 84 83 81 80 79 78 77 74 71 71 70 69 69 69 68 68 65 58 54 54 54 54 53 52 51 49 47 44 42 40 38 36 36 36 36 36 35 33 32 32 32 32 32 31 28 27 27 25 23 22 20 18 16 15 14 13 12 11 11 10 10 10 10 10 9 9 9 8 7 7
98 99 98 97 96 95 94 93 92 91 89 89 87 87 88 87 86 85 85 84 83 82 80 79 78 75 70 68 71 71 70 71 71 70 66 59 56 57 56 56 55 54 53 51 48 46 44 42 41 39 38 37 37 37 37 35 33 32 33 32 32 32 31 30 29 28 25 24 22 19 18 17 16 14 13 12 12 11 11 11 11 12 11 10 10 9 8 7
96 99 99 98 98 96 96 95 94 92 91 90 89 88 88 88 87 86 85 85 83 82 81 80 79 78 72 66 68 72 73 73 74 73 66 60 59 58 57 57 56 55 55 53 50 48 46 45 44 42 40 39 38 38 38 36 34 32 33 33 33 33 32 31 30 29 27 26 24 22 20 19 17 16 14 13 13 12 12 12 12 12 13 12 11 10 10 8
89 96 99 98 98 98 97 96 95 93 92 91 90 89 88 87 87 86 85 85 84 83 82 80 78 78 76 71 69 70 73 76 78 74 65 60 60 59 58 58 57 56 56 55 53 51 49 47 46 44 43 41 39 39 38 37 35 34 33 32 32 34 33 31 30 29 29 28 26 24 23 21 19 18 16 14 13 13 14 13 13 13 13 13 13 12 11 10
82 89 95 97 98 98 97 96 95 94 93 92 91 90 88 87 87 87 86 86 85 83 82 81 78 77 77 76 73 72 73 78 80 73 65 62 61 60 59 59 59 57 57 57 55 53 51 50 48 47 45 43 41 40 39 37 36 36 34 32 32 33 32 32 31 31 30 30 28 26 25 23 21 19 17 15 14 14 14 14 14 14 13 13 14 14 13 12
79 82 87 93 97 97 98 97 96 94 93 92 91 90 89 88 87 87 87 87 86 84 82 81 78 76 76 77 76 75 76 80 80 72 66 64 61 61 61 61 60 59 59 58 57 56 54 53 51 49 47 45 43 41 40 38 37 37 36 34 33 32 32 32 32 32 32 32 31 28 27 26 23 21 19 17 17 14 14 15 14 14 14 14 15 15 14 14
77 78 81 86 92 96 97 97 97 95 93 93 92 90 89 89 88 86 86 87 87 85 82 81 79 76 72 75 76 76 79 81 80 72 65 63 62 62 63 62 62 61 60 60 58 58 56 55 53 51 49 47 45 43 41 39 38 38 37 36 33 32 33 33 33 32 33 34 34 31 28 28 25 22 19 19 20 16 14 15 15 14 14 14 15 15 16 15
77 77 78 81 86 91 94 96 97 96 94 93 91 89 87 88 87 85 84 86 87 85 82 80 79 75 70 72 76 76 81 83 79 73 66 63 62 63 64 64 63 62 61 61 59 58 57 56 55 52 50 48 46 44 42 41 40 39 38 37 35 33 34 35 35 33 33 35 35 33 31 29 28 24 20 21 22 18 15 16 15 15 15 15 15 16 16 16
78 78 77 78 81 85 90 93 96 96 95 93 91 88 84 84 85 83 82 83 87 86 83 81 79 77 72 73 75 76 80 80 75 71 65 62 63 64 66 65 64 64 62 62 61 60 59 57 56 54 53 50 47 46 44 43 43 40 38 38 37 35 36 37 37 36 34 33 32 32 32 32 30 26 21 22 23 19 17 17 17 16 16 16 15 16 17 17
79 78 77 77 78 81 85 89 93 95 94 92 90 87 84 83 84 84 80 78 83 86 84 81 79 78 74 74 76 75 75 72 69 72 67 63 64 65 66 66 65 64 63 62 62 61 60 58 57 56 54 52 49 48 47 46 45 41 40 40 39 37 37 38 38 37 36 34 30 30 31 31 31 28 23 24 24 21 20 19 19 19 18 17 16 16 17 18
79 79 78 77 77 79 81 84 88 92 93 92 91 88 84 81 81 84 82 74 76 83 85 82 79 78 77 75 75 74 72 66 65 72 72 65 65 66 66 66 65 64 63 62 62 61 60 58 57 57 56 55 52 51 49 48 46 43 42 42 40 39 38 39 39 39 38 37 33 30 31 31 30 26 24 28 29 25 22 22 22 21 21 19 17 17 17 19
78 80 79 78 78 78 79 81 83 86 90 92 91 88 85 80 77 81 82 73 69 76 82 82 81 79 79 78 75 74 72 67 66 70 71 66 65 67 67 67 66 65 64 63 61 61 60 59 58 57 57 56 54 53 51 49 48 45 44 44 42 41 40 40 40 40 40 39 36 33 33 31 26 23 26 32 32 28 25 23 23 23 23 21 19 18 18 19
75 78 80 79 78 78 78 79 80 82 85 88 89 87 85 80 75 76 81 75 67 70 77 79 81 80 78 79 76 74 72 70 71 70 69 66 66 68 68 68 68 67 66 64 62 62 62 61 60 59 59 58 56 55 53 51 50 48 47 46 44 43 43 41 40 41 41 41 39 37 36 31 25 24 29 34 33 30 27 24 24 25 24 23 21 20 19 20
71 75 79 80 79 78 78 78 79 80 81 83 86 85 82 79 75 73 77 78 69 66 73 76 80 80 77 76 75 74 70 70 74 72 68 66 67 70 70 70 70 69 68 66 66 65 64 64 61 59 59 60 59 58 56 54 52 51 50 49 47 47 46 42 41 42 42 42 41 40 40 33 26 26 30 33 32 31 28 26 27 27 26 25 24 22 21 20
66 71 75 79 80 79 78 78 78 79 79 80 82 83 81 76 74 73 73 77 72 65 68 73 77 80 78 76 75 73 69 70 73 69 64 62 65 69 70 71 71 69 69 68 68 68 67 67 64 61 60 61 62 61 59 57 56 54 53 52 51 49 48 44 42 44 43 43 43 43 43 35 27 27 31 32 32 30 29 29 30 29 28 27 25 24 23 22
60 66 71 76 79 80 79 78 77 77 78 77 78 80 81 76 72 74 71 71 72 66 66 69 72 78 81 79 76 74 71 72 72 67 61 57 59 65 68 70 71 70 70 69 70 70 70 68 65 64 64 63 63 62 61 60 59 57 55 55 52 50 50 46 45 46 45 45 45 44 44 38 27 27 33 33 31 31 31 31 32 31 29 27 26 25 25 25
54 60 66 71 77 80 80 79 77 77 77 76 76 77 79 78 72 73 72 68 69 66 64 67 68 74 80 80 78 76 73 73 74 71 66 60 58 62 67 70 71 71 71 71 71 71 71 70 68 67 67 67 65 63 63 63 62 60 58 57 54 52 51 50 48 48 46 46 45 44 44 41 30 28 33 33 32 32 31 32 33 31 27 25 25 25 26 27
49 54 59 65 73 78 80 80 78 77 77 75 75 74 75 76 72 71 73 70 69 64 62 66 70 74 79 81 81 77 74 74 72 68 69 67 61 60 66 69 71 72 71 71 72 72 72 72 71 70 70 70 69 66 65 64 63 60 58 56 54 52 52 52 50 46 45 46 45 44 44 43 36 29 32 34 33 34 32 33 33 29 25 23 23 23 24 26
46 50 55 61 68 75 79 80 78 77 77 75 73 71 71 73 72 71 72 73 73 69 66 69 73 76 77 77 79 76 73 74 73 66 64 67 65 60 63 67 71 73 71 71 72 73 73 72 74 75 74 72 70 67 65 63 60 58 56 56 55 54 54 53 51 47 46 47 47 47 45 45 41 33 31 34 35 35 33 32 30 26 24 23 22 22 23 24
44 47 52 57 64 72 77 80 79 77 76 74 71 72 74 75 74 74 74 74 74 70 68 69 70 70 71 73 76 77 75 74 77 72 60 58 62 61 60 63 68 73 73 72 72 73 73 74 76 76 74 71 68 64 63 62 59 58 58 58 58 58 57 55 52 49 48 48 49 48 47 46 45 38 32 34 36 35 33 31 27 24 23 24 23 21 22 22
43 44 49 54 59 67 74 78 79 78 76 73 73 76 79 79 77 75 71 71 74 69 66 68 68 66 67 73 77 79 81 78 76 75 64 52 53 57 60 62 66 70 73 74 72 71 72 76 77 74 71 68 66 64 62 62 60 60 61 61 60 59 58 55 53 51 49 50 50 49 49 49 48 43 36 35 38 37 33 30 26 24 24 25 23 20 20 21
41 43 45 50 56 62 70 76 78 78 76 75 77 78 78 78 76 71 65 66 71 69 67 66 68 68 66 72 78 79 83 84 77 76 72 59 51 53 57 61 65 66 69 74 76 73 73 75 73 70 70 67 66 65 64 64 63 64 64 64 63 61 59 57 55 54 52 52 52 50 51 51 50 48 41 37 39 37 33 30 27 27 28 25 22 20 20 21
39 41 43 47 52 56 64 73 76 78 78 77 77 76 76 77 75 70 63 62 66 69 69 65 65 68 67 70 79 80 80 85 84 80 77 67 55 51 53 57 60 63 68 74 76 77 76 72 66 66 70 69 68 69 68 68 68 68 68 66 65 63 60 59 57 55 53 53 54 53 55 55 52 51 46 40 38 37 35 33 30 30 30 26 23 23 22 21
37 39 41 44 50 54 59 67 75 77 76 75 75 74 76 77 76 71 61 58 63 68 68 65 63 65 67 69 76 81 79 80 85 83 79 76 65 54 52 53 52 56 65 71 72 75 75 70 66 66 66 68 70 71 72 71 70 71 70 67 66 64 60 59 57 54 54 55 55 55 58 59 54 52 49 42 40 40 38 36 34 31 30 27 25 24 22 21
36 38 40 42 48 52 54 64 73 75 74 74 75 74 76 79 77 71 62 55 58 65 66 65 66 66 68 69 73 81 82 79 83 83 78 78 76 67 58 55 52 51 56 64 69 72 69 66 68 68 67 68 71 72 72 71 70 71 70 67 65 63 60 58 57 56 57 58 57 57 61 62 57 53 51 45 42 43 41 39 36 32 31 30 28 25 24 25
35 38 39 40 46 50 54 63 70 73 74 74 74 76 78 81 78 71 64 55 54 64 67 66 68 68 68 70 73 80 84 81 80 82 77 74 78 77 68 63 59 54 50 53 62 69 69 67 68 69 71 72 72 72 70 68 69 71 70 67 64 62 60 59 58 59 60 60 60 58 61 65 61 55 52 48 45 45 44 42 38 34 32 32 30 28 27 27
35 37 38 39 45 51 56 61 67 73 76 74 75 78 79 82 80 69 60 56 56 63 66 64 64 63 64 70 73 78 85 83 78 81 81 75 74 76 75 72 66 61 55 53 59 63 64 66 69 71 73 74 74 73 70 68 68 70 70 67 64 62 60 60 61 62 62 62 61 59 60 65 65 57 52 50 48 47 47 45 40 37 35 34 33 31 29 30
37 37 38 39 44 49 52 56 64 72 75 73 76 78 78 82 83 72 63 63 61 60 64 66 63 59 61 69 74 75 81 83 77 77 78 75 74 74 72 71 68 64 63 63 62 56 52 56 62 68 72 73 74 72 70 67 66 69 69 65 62 62 61 61 62 63 63 63 63 61 59 64 67 60 53 51 50 49 48 46 43 40 38 36 35 33 31 32
38 39 39 39 42 47 50 54 62 71 73 74 75 76 78 82 84 77 70 70 64 57 62 67 65 63 64 70 76 74 75 81 79 74 73 73 74 76 74 69 64 63 64 65 62 56 53 53 54 62 70 72 71 71 69 65 65 67 66 62 59 60 61 61 62 62 63 65 66 63 59 63 68 64 58 55 53 51 49 47 46 43 40 38 37 36 35 34
38 39 41 41 43 49 53 56 62 70 73 75 76 78 80 82 84 79 73 72 65 57 59 64 67 68 67 70 77 77 75 79 79 74 73 70 67 72 75 72 68 66 64 63 60 58 57 56 56 61 67 69 70 69 66 63 64 65 64 61 60 60 61 62 62 62 63 68 69 64 61 64 69 68 63 60 56 53 51 48 46 43 40 39 39 38 38 37
38 40 42 44 45 48 52 55 62 71 74 75 76 79 81 84 86 82 75 72 65 58 57 63 66 65 66 70 75 78 78 77 76 76 76 70 64 66 69 70 72 72 69 63 60 60 56 56 59 60 61 65 69 70 67 66 66 65 64 64 63 63 64 65 66 67 69 72 70 66 65 68 73 72 67 63 59 55 53 50 46 43 40 39 39 40 40 39
37 40 43 44 45 46 49 51 59 70 74 74 75 79 83 86 89 86 78 71 67 62 58 61 65 61 63 71 72 73 78 78 75 76 76 72 66 65 67 70 70 70 71 65 57 55 53 52 54 56 58 62 67 70 70 70 70 68 67 66 66 66 68 69 71 73 75 75 72 69 69 72 76 75 68 65 61 57 55 52 48 44 42 40 40 41 41 41
37 40 42 44 45 47 49 50 57 69 74 76 77 78 83 87 91 88 82 74 69 65 57 56 60 59 59 69 74 74 78 81 78 76 78 75 67 63 64 67 66 64 66 66 61 56 52 50 51 53 57 59 63 68 71 71 71 71 70 69 69 69 71 74 75 76 77 75 73 71 72 76 78 75 70 67 64 60 57 54 50 46 43 41 40 41 42 43
37 39 42 45 46 48 50 51 57 66 73 80 82 79 81 87 89 88 85 80 70 63 56 51 56 60 60 62 67 73 79 83 81 78 79 80 72 62 57 59 65 65 62 61 62 60 55 53 52 51 52 54 59 64 65 65 67 69 69 69 71 71 72 73 74 75 74 73 72 71 74 79 77 73 71 67 64 63 60 57 54 49 46 43 42 41 42 43
36 39 42 46 48 50 52 53 57 63 71 80 84 81 82 86 87 87 87 82 69 61 57 50 51 59 62 60 60 67 78 83 84 81 81 84 80 69 58 55 60 66 67 64 62 60 58 56 53 50 47 46 50 57 61 62 66 68 68 70 71 69 68 70 71 71 69 69 71 72 76 78 74 72 72 68 67 67 65 62 58 55 52 50 47 44 43 44
37 39 43 46 49 51 53 54 58 64 70 77 82 83 82 84 85 85 87 84 70 60 56 50 50 56 61 63 62 65 74 81 83 82 81 83 84 78 67 58 55 57 64 67 64 60 60 59 56 55 53 47 45 48 54 59 61 63 67 69 67 63 66 70 70 70 69 70 73 75 76 75 72 73 74 71 70 69 67 65 61 58 57 54 53 51 49 48
37 39 43 46 50 52 54 55 56 63 70 74 80 83 81 81 84 84 86 84 71 60 55 52 52 55 58 63 65 65 70 76 81 83 81 80 83 84 79 70 61 53 50 54 58 58 57 57 55 55 56 56 53 49 49 51 52 57 62 60 58 61 67 68 68 70 71 72 74 74 74 72 71 74 75 72 70 68 67 65 62 61 59 58 57 57 56 55
38 40 44 47 49 52 55 56 55 61 70 75 79 83 80 79 82 84 85 83 74 64 58 53 53 55 56 59 62 63 67 71 76 81 84 83 83 83 83 80 73 63 53 48 51 54 54 54 52 51 52 55 56 55 54 51 50 52 53 51 55 63 66 66 68 70 71 73 74 73 73 73 72 73 73 69 65 64 64 63 64 63 62 60 61 61 61 60
40 42 44 46 48 51 54 56 56 60 68 74 79 81 80 78 80 84 85 83 79 70 60 54 51 53 56 56 55 58 63 68 73 79 83 85 86 84 82 82 78 73 67 58 52 51 52 52 50 49 50 51 53 57 59 57 54 52 50 50 55 60 60 63 67 67 68 71 71 70 72 72 70 67 65 63 59 58 60 62 64 64 61 60 60 61 60 60
42 42 43 45 47 50 53 55 58 63 67 72 77 79 79 76 74 80 85 85 83 76 66 57 51 50 55 56 55 55 57 62 70 77 82 83 84 85 84 83 79 76 74 70 61 55 53 52 49 48 49 50 52 54 55 56 58 57 54 53 54 55 57 61 64 65 67 68 68 69 70 70 67 61 58 57 56 56 58 60 61 62 60 59 58 58 57 58
43 42 42 44 47 50 54 56 60 66 68 70 74 75 75 74 71 75 83 85 84 81 72 62 53 49 51 54 56 55 54 57 62 71 79 81 83 85 85 85 82 77 76 76 71 65 61 57 53 52 51 51 49 47 47 50 55 54 53 51 50 51 54 58 62 63 65 66 66 67 69 68 66 61 57 56 55 56 56 55 55 57 58 58 58 58 58 59
42 42 42 44 47 50 55 58 61 65 68 69 73 71 67 70 71 73 80 83 82 81 75 65 57 52 49 49 51 52 52 53 55 61 70 74 77 80 80 81 83 80 78 76 73 72 70 65 61 57 55 53 51 48 47 49 51 50 51 51 49 50 53 55 58 58 59 61 61 64 69 66 61 58 57 56 55 55 55 54 53 54 56 57 56 55 56 56
40 40 40 42 45 49 55 59 61 64 66 67 73 72 62 63 69 70 76 82 82 81 77 67 60 56 51 46 44 46 47 47 48 54 61 66 70 73 74 77 80 80 80 78 75 74 74 72 68 62 57 54 53 54 53 51 52 54 55 52 51 53 53 54 56 55 56 58 56 60 66 59 51 50 51 49 48 49 51 53 54 54 54 55 54 52 51 50
39 39 40 41 44 49 54 57 60 63 63 62 70 75 65 61 67 68 71 78 82 83 79 68 60 57 55 50 46 44 45 45 44 48 54 59 62 66 70 74 77 79 80 80 78 77 76 75 74 69 63 57 55 57 57 52 52 55 56 53 51 52 52 54 55 55 58 59 55 58 61 51 42 43 44 43 43 43 45 49 51 52 50 50 51 51 50 48
39 40 42 42 44 48 52 55 57 61 64 62 65 73 69 63 66 68 67 73 78 82 80 69 58 54 54 53 49 48 49 49 46 45 48 52 55 59 64 68 73 77 78 77 78 78 77 77 76 75 73 68 63 62 59 53 50 51 53 53 53 53 53 53 53 55 60 61 59 61 60 49 42 42 41 42 43 42 43 45 47 49 49 48 49 51 51 50
38 40 43 43 44 46 49 54 55 57 63 65 63 69 73 66 64 67 67 69 75 78 75 68 58 53 55 54 50 49 50 51 52 50 48 49 50 53 57 61 66 72 75 77 77 77 77 78 77 76 76 75 71 68 66 61 57 54 52 52 52 52 51 50 51 54 56 59 62 64 61 54 49 46 43 45 47 46 44 45 45 47 49 50 52 53 54 54
37 39 41 43 45 46 48 53 55 53 60 65 62 66 73 68 63 66 67 69 74 75 70 65 59 54 56 58 54 51 50 50 53 55 54 52 51 51 53 57 61 66 71 76 78 77 77 77 77 77 76 74 72 71 72 72 69 66 62 61 62 61 61 61 61 61 58 59 62 62 60 59 54 49 49 52 54 54 52 49 49 50 51 53 55 57 57 57
36 38 39 41 44 45 45 49 54 53 57 64 61 60 69 70 63 60 63 68 73 73 69 66 61 54 53 56 54 52 52 50 50 52 54 55 56 56 57 57 59 62 66 72 77 78 78 77 76 76 75 74 72 72 73 72 71 68 65 66 69 68 68 68 67 65 63 62 61 59 58 58 53 49 50 52 53 55 53 50 51 54 55 57 58 59 59 59
34 36 38 39 39 40 40 43 49 52 57 64 60 53 59 70 68 58 57 64 72 74 71 69 64 55 51 54 53 49 49 49 47 46 48 51 54 57 60 61 62 63 65 69 73 75 77 77 75 74 73 72 72 72 71 70 68 64 59 59 61 62 62 62 61 61 60 59 57 54 54 55 51 47 46 47 50 51 49 48 50 52 54 56 57 58 58 59
31 34 38 37 37 38 37 40 47 52 58 65 60 48 49 64 72 64 55 59 68 73 73 71 67 59 53 55 58 54 46 42 41 40 40 44 48 51 55 59 62 63 66 68 70 72 73 74 73 73 72 72 72 72 72 71 71 69 64 60 59 59 61 61 60 60 61 61 57 51 50 52 48 46 48 50 52 52 51 53 54 54 55 56 57 58 59 60
29 33 38 39 39 40 39 40 46 52 60 65 61 50 46 53 65 67 59 56 61 68 72 70 69 67 60 58 62 61 51 42 40 40 39 41 42 44 47 51 53 57 61 63 65 67 68 69 70 72 73 73 73 72 73 74 74 76 76 73 69 66 64 63 61 59 58 57 55 52 51 48 41 43 49 50 51 54 56 57 58 57 58 60 60 61 61 61
27 32 38 39 39 40 38 39 45 52 59 64 61 52 44 46 57 65 64 60 59 63 68 68 67 69 68 62 59 60 59 53 48 45 44 45 47 47 49 50 51 53 56 57 59 61 62 64 66 68 70 71 72 73 75 76 78 81 81 79 76 74 71 70 68 63 58 56 55 54 53 47 42 45 47 45 46 51 54 56 56 55 56 58 59 60 61 60
Wind_Direction
224 224 224 224 224 223 223 223 222 222 222 223 224 224 223 223 223 223 223 223 224 224 224 225 225 225 226 225 225 225 225 225 225 225 225 223 223 224 226 226 228 230 232 233 233 233 234 233 231 230 232 232 232 232 231 231 230 230 232 232 232 234 233 228 227 230 231 235 238 239 236 232 231 229 227 224 222 224 229 235 243 247 247 251 263 275 282 288
225 224 224 224 224 224 223 223 223 222 222 223 223 224 224 223 222 223 223 223 223 224 224 224 225 225 225 226 226 226 226 226 226 226 225 220 220 223 225 226 227 229 231 232 232 232 233 233 233 231 231 232 232 233 233 233 232 231 231 232 234 236 236 230 227 229 232 234 236 237 237 235 235 233 230 226 222 223 228 233 242 249 250 249 253 264 274 278
226 225 224 223 224 224 224 223 223 223 223 223 223 223 224 224 223 222 223 223 223 224 224 224 225 225 224 224 226 227 227 227 227 227 224 220 220 222 224 226 226 227 230 231 231 231 231 232 233 232 231 232 233 233 234 235 235 234 232 231 234 237 237 233 229 228 230 233 234 235 236 236 235 236 235 231 226 224 228 232 239 247 253 254 253 257 265 271
226 226 225 224 224 224 224 224 224 223 223 223 223 223 223 224 224 223 223 223 223 224 224 224 224 225 224 223 224 226 227 228 228 226 223 220 220 222 223 225 226 227 229 230 231 232 232 232 233 233 233 232 233 234 235 236 236 235 235 231 233 237 237 235 230 227 228 230 233 234 235 236 234 235 237 236 232 228 229 232 236 243 250 256 257 256 260 266
226 226 225 224 224 224 224 224 224 224 223 223 224 224 224 224 224 224 223 223 223 223 224 224 223 224 225 225 225 226 227 228 228 226 223 220 220 221 222 224 226 227 228 229 230 231 232 232 232 233 233 233 233 234 235 236 236 238 239 235 233 236 238 236 231 226 225 227 230 231 234 236 235 234 235 238 237 231 231 234 236 240 243 251 256 258 259 262
226 225 224 224 224 224 224 224 224 224 224 224 224 224 224 224 224 224 223 223 223 223 223 224 224 224 224 225 226 226 228 228 227 225 224 221 219 221 221 223 225 226 227 228 229 230 231 232 233 232 233 234 233 234 235 236 237 238 240 239 236 235 237 238 234 227 223 224 227 229 232 236 236 234 233 237 238 232 232 235 236 241 242 246 252 256 258 260
226 225 224 223 224 224 223 224 224 224 224 224 224 224 225 225 224 224 224 224 224 223 223 223 224 224 224 225 226 226 228 228 228 227 224 222 220 221 222 222 224 225 226 228 228 229 230 232 233 233 233 233 234 234 235 235 237 238 239 241 240 238 238 239 238 233 226 223 225 227 230 235 237 236 234 236 238 232 233 239 237 240 242 245 248 252 254 256
226 225 224 223 223 223 223 223 223 224 224 224 224 224 225 226 225 224 224 224 224 223 223 223 223 223 222 225 226 227 228 228 229 228 224 222 221 221 223 223 223 225 226 227 229 229 230 231 233 234 234 233 233 235 235 235 236 238 239 241 242 241 239 239 240 238 232 225 223 225 228 232 236 237 235 237 239 233 234 241 240 241 242 243 245 248 250 252
226 225 224 223 222 222 223 223 223 223 224 224 224 224 225 226 225 224 224 224 224 224 223 222 222 221 220 222 225 227 227 227 229 229 225 222 221 221 223 224 224 225 226 227 228 229 229 230 231 233 234 233 232 233 234 235 236 236 238 240 241 240 239 239 240 240 239 232 224 223 228 230 233 236 235 239 242 235 234 241 243 244 244 243 243 245 247 249
226 225 224 223 222 222 222 222 222 222 223 224 224 223 224 225 225 224 224 225 224 224 223 222 222 222 220 220 223 225 225 225 226 228 226 220 221 222 223 224 224 224 225 226 228 229 230 230 230 232 233 233 232 232 233 235 236 235 236 239 239 240 240 240 241 242 242 240 230 224 227 229 230 232 234 240 243 239 235 239 244 246 246 245 244 245 247 248
224 225 224 223 222 221 221 221 222 222 222 223 224 223 223 224 225 225 225 226 225 224 222 222 221 221 221 221 222 224 223 223 224 227 226 220 220 223 223 224 224 225 225 226 228 229 230 230 231 232 233 233 233 233 233 234 236 235 235 238 239 240 240 241 242 243 244 243 239 231 229 228 227 227 231 238 241 240 237 238 242 245 247 246 246 247 248 249
222 223 223 222 221 221 220 220 221 221 221 222 223 223 223 223 225 225 224 226 227 224 222 222 221 221 221 221 222 222 222 222 223 226 227 221 219 222 222 222 223 223 225 226 227 229 230 231 231 231 232 233 234 234 234 234 236 236 236 237 238 239 240 241 242 244 245 245 244 240 234 229 225 221 227 235 238 238 239 238 239 243 246 247 247 248 249 250
221 221 222 222 221 220 220 220 219 220 221 220 221 222 223 222 223 224 222 225 229 226 222 222 222 222 222 222 222 222 223 222 222 225 228 223 219 221 221 221 221 221 222 224 225 227 228 230 230 231 232 232 232 234 234 235 235 235 236 237 238 239 239 239 241 243 245 246 246 245 241 232 223 220 227 235 237 237 239 239 239 241 244 247 246 246 247 250
221 221 221 221 221 220 219 219 219 219 220 220 220 220 221 220 220 222 221 223 227 226 222 221 222 221 221 222 222 222 223 223 223 225 228 227 222 221 222 222 222 222 221 221 223 224 225 227 228 230 232 232 231 232 233 233 233 233 234 236 237 238 239 238 240 243 244 246 246 246 244 235 224 224 231 236 238 238 238 240 240 240 242 244 244 245 246 248
221 220 220 220 220 220 219 218 218 218 219 219 218 218 218 218 217 219 220 222 225 225 222 220 221 220 219 220 220 220 222 223 223 223 225 227 223 220 221 222 222 222 221 221 222 223 224 225 225 225 228 231 230 230 231 231 232 233 233 235 236 238 240 238 240 242 243 245 246 247 246 238 227 230 235 237 240 240 239 239 240 240 240 242 244 245 246 248
222 220 220 219 219 219 218 218 217 217 218 218 217 217 216 215 215 217 218 221 224 226 224 221 220 220 218 218 217 216 218 221 222 220 221 224 224 220 219 221 222 221 221 220 221 222 224 225 224 224 224 227 228 227 229 230 231 233 233 235 236 238 241 240 239 241 243 244 245 247 248 244 233 232 239 239 240 240 239 240 241 241 241 241 243 244 246 248
223 221 220 219 218 217 217 216 216 215 216 217 216 216 215 214 215 217 217 219 222 225 226 222 219 220 219 217 217 215 215 218 221 222 222 223 224 222 218 219 221 221 220 220 220 221 223 224 224 224 224 225 227 225 227 229 230 231 233 235 236 237 240 241 239 239 242 245 247 249 251 251 241 232 240 242 240 240 239 240 242 242 242 242 242 243 244 247
223 222 220 219 217 216 216 215 214 214 215 215 215 214 214 213 213 216 218 219 220 221 222 219 216 218 217 215 215 213 214 217 220 224 225 224 224 222 220 218 220 221 220 220 221 220 222 223 223 225 224 225 228 227 228 229 230 232 234 237 238 239 241 243 242 241 243 247 249 250 251 253 249 236 238 243 242 240 238 239 242 244 245 244 243 243 244 245
223 222 220 219 217 215 215 214 213 213 213 213 213 212 210 209 210 213 216 217 219 220 219 216 216 217 216 214 213 212 213 216 219 223 226 227 226 224 221 219 219 220 219 220 222 221 221 223 223 224 226 228 230 231 232 232 233 235 236 239 240 240 241 242 243 241 242 245 247 249 249 251 252 243 237 242 243 242 240 239 242 245 246 246 244 243 243 244
221 221 220 219 217 215 213 213 212 212 212 212 211 209 206 204 205 209 211 214 219 222 223 221 220 221 219 215 213 211 211 214 217 219 221 224 227 227 225 221 220 220 218 219 222 223 222 223 225 227 230 232 232 233 233 234 234 235 236 237 238 239 239 240 241 241 240 243 245 248 249 250 251 247 240 242 245 244 244 243 243 244 243 244 244 242 242 242
221 220 219 217 216 214 212 211 211 210 210 209 209 208 206 203 204 206 209 213 217 220 223 222 220 220 217 215 213 211 211 213 214 215 215 217 221 224 224 224 222 221 219 218 220 223 223 224 227 229 231 232 233 233 234 234 234 235 236 237 238 238 240 240 241 242 241 243 245 247 249 249 249 249 244 242 245 245 245 246 245 243 241 241 243 244 243 239
220 220 218 217 215 214 212 210 209 209 209 208 208 208 205 203 203 204 206 211 216 218 221 221 218 217 214 213 213 212 213 213 213 213 213 214 215 218 221 223 224 223 222 220 219 220 222 224 226 230 230 230 230 231 232 233 233 234 235 236 237 238 239 240 240 242 242 244 246 246 248 248 248 249 246 243 245 248 247 246 244 243 241 239 241 243 242 238
220 219 218 217 213 212 211 209 208 208 207 207 208 207 204 201 201 202 204 209 213 217 220 221 219 218 215 212 211 212 213 215 215 215 215 214 213 216 219 221 224 223 222 221 219 219 223 227 228 228 228 228 228 228 229 230 231 232 232 234 236 236 238 240 240 241 242 244 245 245 246 246 245 246 246 245 247 249 248 246 242 242 243 241 238 240 240 239
220 218 217 216 212 210 210 208 207 206 206 206 207 206 203 200 199 200 205 209 211 215 219 222 222 219 217 214 211 211 213 215 217 218 218 216 214 215 218 219 221 223 221 221 221 222 226 231 230 227 228 229 228 227 227 229 230 232 233 233 235 236 237 240 241 242 243 244 244 245 246 245 244 245 245 246 248 248 248 247 244 242 245 243 238 238 240 239
220 217 216 216 212 209 209 208 206 204 203 205 205 203 201 199 199 202 207 211 213 214 216 219 219 217 215 214 212 211 212 214 215 217 219 219 218 217 218 218 219 222 223 222 223 224 225 227 227 228 229 229 228 228 228 229 231 233 234 235 236 237 238 240 242 243 243 243 243 244 246 244 242 244 245 245 247 248 249 249 247 245 245 245 242 238 239 238
219 216 215 215 211 208 209 207 204 202 202 202 203 201 200 199 199 202 207 214 216 214 214 215 215 214 212 211 211 210 212 214 214 215 216 218 220 221 222 222 220 221 223 224 225 225 224 223 223 226 228 228 229 230 230 230 232 234 236 236 237 238 239 240 242 243 243 243 242 243 246 245 240 240 243 244 244 247 249 250 249 248 247 247 246 240 237 239
216 215 214 214 210 208 208 205 202 202 201 200 201 200 198 198 199 201 206 215 219 215 214 215 214 213 211 210 210 210 212 213 212 215 216 217 219 221 224 226 225 224 223 224 226 225 224 223 222 223 225 228 230 231 232 231 232 235 236 236 237 238 239 239 240 242 243 243 243 242 245 246 241 236 240 243 243 244 247 250 250 249 247 247 248 245 240 239
212 212 213 212 210 208 205 203 202 202 200 200 201 200 197 197 200 204 210 218 219 214 214 216 215 214 213 211 209 210 212 212 212 215 216 219 221 221 223 228 229 229 229 230 230 228 226 225 224 226 227 228 230 231 232 230 230 233 234 234 235 237 238 239 240 241 242 243 243 241 243 246 242 236 237 241 243 243 245 249 250 248 248 247 248 248 244 241
211 210 210 211 209 206 203 202 202 201 199 199 200 199 198 198 201 207 216 221 217 213 214 216 216 215 214 211 208 208 209 211 213 214 213 217 222 222 223 225 228 230 232 234 235 234 231 227 225 227 229 230 230 231 230 230 231 233 234 233 234 236 237 239 240 241 243 243 242 242 244 247 245 239 237 238 239 242 244 247 249 249 249 249 249 249 247 245
211 209 208 208 206 205 204 202 199 198 197 197 198 198 198 199 203 209 219 222 216 212 213 213 214 216 216 212 208 206 206 208 211 212 213 216 220 222 222 224 226 229 233 235 236 235 233 229 226 226 227 229 230 230 230 231 232 233 234 233 234 236 238 239 241 242 243 243 241 242 244 247 247 242 238 236 236 239 242 245 249 251 250 250 250 251 251 249
210 208 207 208 206 204 204 202 198 195 196 196 197 197 198 200 204 210 218 220 215 213 213 211 212 214 215 211 208 206 205 206 208 210 212 214 219 221 221 221 223 226 229 232 233 234 231 227 226 226 225 226 227 228 228 229 231 232 232 232 232 234 236 238 240 241 243 243 241 242 243 245 245 241 238 237 236 237 240 242 246 250 251 251 251 252 252 252
209 208 208 207 206 203 201 200 198 195 194 194 196 198 199 202 206 210 216 216 215 215 214 212 211 210 210 209 207 207 206 206 205 206 208 210 214 216 216 217 217 219 222 223 225 227 226 224 225 225 224 224 225 225 225 226 229 229 229 229 230 232 234 235 237 239 241 242 241 241 242 244 244 242 240 239 238 238 239 241 243 245 248 249 249 251 252 253
209 208 208 206 204 202 199 199 198 196 193 192 195 199 200 204 207 209 212 213 213 214 213 212 211 210 210 209 208 207 206 207 207 205 205 207 211 212 213 215 215 215 219 220 221 222 221 223 224 223 223 223 223 224 225 226 228 229 229 229 229 230 232 233 234 237 239 240 240 240 242 243 243 243 242 242 243 242 241 241 242 242 245 247 247 248 251 253
208 207 207 205 204 202 200 200 198 196 195 194 195 199 202 205 208 208 209 211 211 210 210 210 209 210 212 211 211 209 207 207 208 207 206 207 210 211 209 213 216 216 217 218 221 222 221 220 220 222 224 224 224 225 226 228 231 233 232 232 232 232 234 236 237 239 240 241 242 241 242 244 244 244 244 245 247 248 246 245 244 243 244 245 246 247 249 251
205 204 204 203 203 202 199 199 196 194 196 196 197 201 204 205 207 208 208 209 209 207 208 210 209 209 211 211 211 212 211 209 208 208 209 209 211 211 206 208 214 218 220 221 223 224 225 225 224 225 226 226 227 227 227 228 230 232 232 232 233 234 237 240 241 242 243 243 243 242 244 246 246 246 247 247 248 249 250 249 247 246 246 244 245 246 247 248
201 202 203 202 202 201 198 197 195 193 195 197 199 203 205 205 206 208 209 208 208 207 206 211 212 211 211 210 209 210 211 211 210 210 210 211 213 214 211 209 210 216 221 225 228 228 229 231 231 230 229 228 227 225 226 228 230 232 232 233 234 235 237 239 241 242 243 243 242 241 243 246 246 246 245 246 246 247 249 251 251 250 250 248 247 247 247 247
198 198 200 200 200 199 197 197 197 195 195 197 201 203 205 206 206 208 209 209 210 208 207 212 215 213 212 211 210 210 209 209 211 213 213 213 214 215 215 214 211 212 217 222 227 229 230 232 232 232 232 230 228 226 225 228 231 233 234 235 236 236 236 238 240 242 243 244 243 243 244 245 246 246 245 245 247 249 250 253 254 254 253 252 251 251 251 249
198 198 198 199 199 199 197 197 198 198 198 199 201 203 205 206 207 208 209 209 209 208 208 214 217 216 214 213 212 212 210 209 210 213 215 216 216 215 216 217 215 215 217 219 222 225 226 227 228 229 229 228 228 228 228 228 230 233 234 235 235 235 235 236 238 240 242 244 245 246 247 246 246 247 248 248 249 251 253 254 255 256 255 254 253 254 255 254
199 200 199 199 199 199 199 198 198 199 201 201 201 202 204 206 207 208 210 210 209 208 210 214 217 217 217 216 214 214 213 212 212 213 215 217 218 217 218 219 219 219 220 220 222 221 221 223 225 226 227 226 227 229 230 229 228 230 233 233 233 236 237 238 239 241 243 245 246 248 248 248 248 249 251 252 251 252 253 253 254 256 256 256 255 255 255 256
200 201 201 200 199 199 198 198 199 200 202 201 200 202 203 205 207 209 210 212 210 209 211 214 216 217 217 216 216 215 216 216 216 216 216 217 219 219 219 220 220 220 221 222 223 223 221 221 222 223 224 226 228 229 229 230 230 231 234 235 235 235 236 238 240 241 243 245 246 248 248 248 249 248 248 250 250 249 250 250 252 255 256 257 257 257 257 258
199 200 200 199 200 199 197 197 200 202 202 200 199 200 202 204 207 209 211 212 211 210 212 215 218 220 219 217 216 216 217 218 219 218 218 218 219 219 219 220 220 220 221 222 224 225 225 224 225 227 228 228 228 228 227 229 231 232 234 237 238 237 237 237 239 241 243 245 247 250 251 251 251 249 248 249 249 249 250 251 253 255 256 257 258 259 260 260
198 199 198 199 201 200 198 199 201 201 201 201 198 197 200 205 207 209 212 212 211 210 212 216 220 221 220 218 217 217 216 217 219 219 219 219 220 221 220 221 222 222 223 224 225 227 229 229 230 230 231 231 230 229 229 229 230 230 231 234 234 235 236 237 239 242 245 247 248 251 252 252 253 253 252 251 251 251 252 253 253 254 254 255 255 255 256 257
197 197 197 199 202 202 201 201 201 200 201 201 199 197 199 204 206 210 214 213 210 209 210 214 218 219 219 217 216 215 215 217 219 219 220 220 220 221 220 221 223 224 225 226 225 226 228 229 230 230 231 232 230 229 229 230 230 230 230 231 231 232 235 238 240 243 247 249 249 251 252 251 249 251 250 249 248 247 247 247 247 248 248 249 249 248 249 250
196 194 193 198 203 205 204 202 201 201 200 200 201 199 199 202 205 209 214 214 212 210 210 214 216 218 220 220 219 217 214 215 218 218 218 219 220 220 220 221 222 224 225 227 227 227 228 228 229 229 230 230 228 227 225 223 226 229 229 229 231 232 235 237 239 242 246 248 248 250 252 250 245 245 245 243 241 239 239 241 242 242 243 243 245 246 246 246
196 193 191 197 204 206 205 203 203 203 200 199 200 201 201 202 204 207 211 213 212 210 211 215 216 217 220 221 222 220 216 214 215 216 216 217 219 220 221 222 223 224 226 227 229 229 229 229 229 229 230 231 231 232 232 229 229 230 229 228 231 233 235 238 241 243 246 248 247 248 250 247 242 240 240 239 239 239 238 239 240 241 243 243 245 247 247 246
197 194 193 199 204 204 204 205 205 204 202 198 198 201 204 206 205 206 210 212 211 209 211 214 218 220 221 221 221 221 219 216 216 216 216 217 218 219 221 223 225 226 227 228 229 229 230 230 230 231 232 233 234 237 239 239 237 237 235 234 235 235 235 239 244 247 249 250 249 249 250 247 240 237 238 239 241 242 241 242 242 243 245 247 248 248 248 248
196 196 196 201 205 205 204 204 203 203 202 200 199 202 205 206 205 207 210 212 210 210 210 212 217 221 222 223 224 224 223 220 218 217 216 217 217 217 219 222 224 225 227 228 229 230 231 232 232 233 234 234 234 236 239 241 243 245 246 246 248 247 246 248 252 254 256 256 254 251 251 249 242 238 240 243 245 247 246 245 247 247 248 249 250 250 250 251
198 198 198 202 207 208 208 205 202 202 201 200 200 203 205 205 203 205 209 212 212 212 211 211 213 216 218 222 224 224 224 221 218 216 215 215 216 216 218 220 222 224 226 228 229 231 232 233 234 235 236 235 235 236 239 242 246 249 249 249 250 251 251 252 253 254 254 255 254 253 251 249 244 240 241 244 246 248 248 246 247 248 248 248 250 251 252 252
200 200 200 202 205 208 210 208 205 203 202 200 199 201 205 206 206 206 210 213 214 214 214 214 213 213 216 218 218 220 222 221 220 218 216 216 216 217 218 220 222 223 225 228 230 231 234 235 235 236 238 237 236 237 238 240 242 243 243 243 242 242 244 245 244 243 243 245 246 247 249 249 244 238 237 240 243 245 245 245 244 244 244 245 246 249 250 252
202 201 199 198 201 205 208 208 208 206 204 202 199 197 200 206 209 211 212 216 217 216 216 216 216 216 218 219 219 219 222 224 225 224 221 218 217 217 219 220 222 224 225 227 229 231 234 235 236 237 239 238 237 238 239 239 239 238 238 238 237 236 237 238 237 236 236 238 239 239 244 247 244 239 237 239 243 244 245 247 247 245 244 244 246 249 250 252
203 202 198 196 199 205 208 208 208 207 206 203 200 198 199 204 209 212 214 217 219 218 217 218 219 220 221 224 224 223 223 222 221 220 221 221 220 221 222 222 222 224 225 227 229 231 233 234 235 236 238 238 237 238 240 240 240 240 240 240 239 238 239 240 240 236 234 235 234 234 237 240 241 241 239 238 240 242 244 246 246 245 245 245 246 249 251 253
202 201 199 198 201 206 209 208 206 206 206 204 202 202 204 204 207 211 214 216 218 217 216 218 221 222 223 228 229 227 226 226 222 220 221 223 224 225 226 225 225 226 227 228 229 230 232 233 233 234 237 236 236 238 240 241 242 241 240 241 243 244 244 245 244 242 240 239 237 235 235 234 235 240 239 234 234 237 239 241 243 243 244 245 245 246 248 250
Height
5630 5636 5642 5649 5655 5662 5668 5674 5680 5686 5691 5696 5701 5707 5713 5719 5725 5730 5735 5740 5745 5750 5756 5760 5766 5770 5775 5780 5783 5787 5790 5793 5798 5801 5808 5819 5825 5827 5830 5832 5834 5835 5836 5839 5843 5846 5849 5851 5854 5856 5857 5859 5861 5862 5864 5865 5867 5869 5871 5873 5875 5876 5878 5880 5880 5881 5883 5883 5884 5885 5887 5887 5887 5888 5888 5888 5889 5890 5890 5891 5891 5892 5893 5894 5894 5895 5895 5895
5621 5627 5634 5640 5646 5653 5659 5665 5672 5678 5683 5688 5694 5700 5705 5712 5718 5723 5728 5734 5739 5744 5750 5755 5760 5765 5771 5776 5779 5782 5785 5788 5792 5796 5806 5816 5819 5822 5826 5828 5831 5832 5834 5836 5840 5843 5845 5848 5850 5853 5854 5856 5858 5860 5861 5863 5865 5867 5869 5871 5873 5874 5875 5877 5878 5880 5881 5882 5883 5883 5885 5886 5886 5887 5887 5887 5888 5889 5889 5889 5890 5890 5891 5892 5893 5893 5894 5894
5612 5618 5625 5632 5638 5644 5651 5657 5664 5670 5677 5682 5687 5693 5698 5704 5711 5717 5722 5727 5733 5738 5744 5749 5754 5760 5766 5771 5775 5776 5780 5782 5783 5792 5804 5811 5814 5818 5821 5823 5827 5830 5831 5833 5836 5839 5841 5844 5846 5848 5851 5853 5855 5857 5859 5861 5863 5865 5867 5869 5870 5871 5872 5874 5876 5878 5879 5880 5881 5882 5883 5884 5885 5886 5886 5887 5887 5888 5888 5888 5889 5889 5889 5891 5892 5892 5892 5893
5603 5609 5617 5624 5630 5636 5642 5649 5656 5663 5669 5675 5681 5686 5692 5698 5704 5711 5716 5721 5727 5732 5738 5744 5749 5754 5760 5765 5768 5770 5774 5773 5777 5791 5801 5807 5810 5814 5817 5820 5823 5826 5828 5831 5833 5835 5838 5840 5843 5845 5848 5850 5852 5854 5856 5858 5861 5862 5864 5866 5867 5868 5870 5871 5873 5876 5877 5878 5879 5880 5881 5882 5884 5884 5885 5886 5887 5887 5887 5887 5887 5888 5888 5889 5890 5891 5891 5892
5595 5601 5608 5615 5622 5628 5635 5641 5648 5655 5662 5668 5674 5679 5686 5692 5697 5704 5710 5715 5720 5726 5733 5738 5743 5749 5754 5758 5761 5765 5765 5765 5776 5790 5797 5801 5806 5808 5813 5816 5818 5823 5825 5827 5830 5832 5834 5836 5839 5842 5844 5847 5849 5852 5854 5856 5859 5860 5862 5863 5865 5865 5866 5868 5870 5873 5874 5876 5877 5878 5879 5880 5882 5883 5884 5885 5885 5886 5886 5886 5887 5886 5887 5888 5888 5889 5890 5890
5587 5593 5600 5607 5613 5620 5627 5633 5640 5647 5654 5661 5667 5672 5679 5684 5690 5697 5703 5708 5713 5720 5726 5732 5739 5744 5749 5752 5755 5758 5757 5763 5775 5786 5792 5796 5801 5804 5808 5810 5813 5817 5820 5823 5826 5829 5831 5833 5835 5838 5841 5844 5846 5849 5851 5854 5856 5858 5859 5860 5862 5863 5864 5865 5867 5869 5871 5873 5875 5876 5877 5878 5880 5881 5883 5883 5883 5885 5885 5885 5886 5885 5886 5887 5887 5888 5889 5889
5579 5586 5592 5598 5605 5612 5619 5625 5632 5639 5646 5653 5660 5666 5672 5677 5684 5691 5697 5702 5707 5715 5721 5727 5733 5739 5746 5746 5749 5750 5752 5762 5772 5782 5790 5792 5798 5801 5802 5806 5808 5812 5815 5819 5822 5825 5828 5830 5831 5834 5838 5841 5843 5846 5849 5851 5853 5855 5857 5858 5860 5861 5861 5862 5863 5866 5868 5870 5872 5874 5875 5876 5878 5879 5881 5881 5881 5883 5884 5884 5884 5884 5885 5886 5886 5886 5887 5887
5572 5578 5584 5591 5597 5603 5611 5618 5625 5632 5638 5646 5653 5660 5666 5671 5678 5685 5691 5696 5702 5709 5715 5722 5727 5734 5741 5740 5741 5743 5747 5760 5769 5778 5785 5788 5794 5796 5796 5801 5804 5808 5812 5815 5819 5822 5825 5827 5829 5832 5834 5837 5841 5843 5846 5848 5850 5852 5854 5856 5857 5858 5859 5859 5860 5862 5864 5867 5869 5872 5873 5874 5876 5878 5880 5879 5879 5882 5883 5882 5883 5883 5884 5884 5885 5885 5885 5886
5564 5570 5577 5583 5589 5596 5603 5610 5618 5625 5632 5639 5647 5654 5660 5665 5672 5679 5684 5690 5697 5703 5710 5716 5721 5727 5732 5734 5735 5736 5746 5761 5767 5773 5780 5784 5788 5789 5791 5795 5799 5803 5807 5811 5814 5817 5820 5823 5826 5828 5830 5834 5837 5840 5842 5844 5846 5850 5852 5853 5854 5855 5856 5856 5857 5859 5861 5863 5866 5869 5870 5872 5874 5876 5878 5877 5877 5880 5881 5880 5881 5882 5882 5883 5883 5883 5883 5884
5556 5563 5570 5576 5583 5589 5596 5603 5610 5619 5626 5632 5640 5648 5654 5659 5666 5672 5678 5685 5690 5697 5704 5710 5716 5721 5724 5729 5729 5733 5748 5759 5762 5766 5771 5777 5781 5782 5787 5790 5795 5799 5803 5807 5810 5813 5817 5821 5823 5825 5827 5830 5833 5836 5838 5840 5842 5847 5849 5850 5851 5852 5853 5854 5855 5856 5858 5860 5863 5866 5867 5869 5872 5875 5877 5876 5875 5877 5878 5879 5879 5880 5881 5881 5882 5882 5882 5882
5549 5556 5562 5569 5576 5582 5590 5596 5603 5612 5619 5626 5633 5641 5649 5655 5660 5666 5674 5680 5685 5691 5697 5704 5711 5714 5717 5722 5723 5732 5747 5752 5757 5759 5760 5769 5775 5777 5783 5786 5791 5795 5799 5803 5806 5810 5814 5817 5819 5821 5823 5826 5829 5832 5834 5837 5840 5844 5845 5846 5848 5850 5850 5851 5852 5853 5855 5856 5859 5863 5864 5867 5870 5874 5876 5873 5872 5874 5876 5877 5878 5878 5879 5879 5880 5880 5881 5881
5542 5548 5555 5562 5569 5576 5583 5590 5597 5604 5612 5620 5627 5635 5643 5649 5655 5662 5670 5676 5680 5685 5692 5699 5703 5706 5710 5713 5719 5732 5742 5746 5752 5752 5752 5763 5769 5771 5776 5779 5784 5789 5794 5799 5803 5807 5809 5812 5815 5817 5820 5823 5826 5828 5831 5834 5836 5839 5841 5843 5845 5846 5847 5848 5850 5851 5852 5853 5856 5859 5860 5863 5869 5873 5873 5868 5869 5872 5873 5875 5876 5876 5877 5878 5878 5879 5879 5879
5534 5541 5548 5555 5562 5569 5576 5583 5591 5598 5606 5614 5621 5629 5637 5645 5651 5657 5664 5670 5675 5680 5687 5694 5697 5701 5704 5706 5718 5729 5735 5740 5745 5745 5747 5754 5761 5764 5768 5772 5776 5781 5787 5793 5797 5801 5803 5806 5810 5813 5815 5818 5822 5824 5827 5830 5832 5835 5837 5838 5841 5842 5843 5845 5847 5848 5849 5850 5853 5855 5855 5860 5867 5870 5868 5866 5867 5870 5872 5873 5874 5874 5875 5875 5876 5877 5878 5878
5528 5534 5541 5548 5556 5563 5570 5578 5585 5592 5600 5607 5616 5625 5632 5640 5647 5652 5659 5664 5669 5674 5680 5686 5690 5695 5699 5704 5716 5724 5729 5735 5737 5739 5742 5746 5754 5758 5762 5766 5771 5776 5781 5786 5789 5792 5795 5799 5804 5809 5811 5813 5816 5819 5822 5825 5827 5830 5832 5834 5836 5837 5839 5843 5845 5845 5846 5846 5849 5850 5850 5856 5865 5866 5864 5864 5866 5868 5870 5871 5871 5872 5873 5873 5874 5875 5876 5877
5522 5528 5534 5541 5549 5556 5564 5572 5579 5587 5594 5602 5611 5619 5627 5635 5642 5648 5654 5660 5665 5669 5675 5680 5684 5688 5692 5699 5710 5718 5726 5729 5730 5736 5738 5742 5749 5753 5757 5761 5765 5771 5776 5779 5782 5785 5788 5791 5798 5804 5805 5806 5810 5813 5816 5819 5821 5824 5827 5829 5832 5834 5835 5840 5842 5841 5843 5843 5844 5845 5845 5852 5862 5863 5861 5862 5864 5866 5868 5868 5868 5869 5870 5871 5872 5873 5874 5875
5516 5522 5528 5535 5542 5550 5558 5566 5574 5582 5589 5598 5605 5614 5622 5629 5637 5644 5650 5657 5661 5665 5669 5672 5677 5680 5684 5693 5703 5712 5718 5721 5726 5730 5733 5739 5744 5747 5753 5755 5759 5765 5768 5773 5776 5778 5782 5787 5793 5797 5798 5798 5802 5807 5811 5814 5817 5820 5823 5825 5829 5831 5832 5837 5838 5838 5839 5839 5840 5842 5841 5847 5859 5861 5858 5859 5861 5863 5864 5864 5865 5865 5867 5869 5870 5872 5872 5872
5512 5517 5523 5529 5536 5543 5552 5559 5568 5577 5584 5592 5600 5609 5617 5625 5635 5642 5648 5654 5656 5659 5663 5667 5674 5674 5677 5689 5698 5704 5711 5716 5720 5722 5727 5734 5737 5741 5746 5748 5753 5758 5762 5766 5768 5772 5776 5781 5786 5788 5791 5793 5796 5802 5805 5808 5812 5816 5819 5822 5826 5828 5829 5831 5832 5834 5836 5836 5838 5840 5839 5843 5853 5858 5855 5856 5858 5858 5860 5861 5861 5863 5865 5868 5868 5869 5870 5870
5508 5512 5518 5523 5530 5537 5545 5554 5563 5571 5579 5587 5596 5605 5613 5623 5632 5636 5642 5646 5647 5652 5655 5658 5662 5659 5664 5678 5688 5699 5709 5713 5715 5718 5723 5727 5730 5735 5739 5743 5747 5751 5756 5758 5761 5766 5768 5773 5779 5780 5783 5787 5791 5796 5801 5806 5811 5815 5819 5821 5824 5827 5827 5827 5829 5833 5835 5835 5837 5837 5837 5838 5846 5854 5853 5852 5853 5854 5856 5857 5858 5861 5864 5865 5866 5867 5867 5868
5504 5508 5513 5518 5524 5531 5539 5548 5557 5566 5574 5583 5592 5602 5610 5617 5623 5627 5633 5636 5635 5638 5639 5642 5647 5648 5660 5677 5687 5697 5706 5709 5712 5715 5718 5722 5727 5731 5733 5738 5740 5744 5750 5751 5754 5759 5762 5767 5769 5769 5775 5783 5790 5798 5803 5807 5812 5816 5819 5819 5820 5822 5822 5823 5826 5831 5832 5832 5832 5833 5835 5835 5839 5847 5850 5849 5849 5850 5852 5854 5856 5860 5862 5862 5863 5864 5864 5865
5500 5505 5509 5514 5519 5526 5534 5543 5552 5561 5569 5579 5589 5595 5597 5602 5608 5613 5621 5626 5628 5633 5637 5642 5649 5654 5668 5681 5686 5694 5700 5701 5704 5709 5714 5720 5723 5726 5729 5733 5735 5737 5741 5745 5748 5753 5758 5759 5759 5766 5777 5785 5793 5799 5801 5805 5809 5812 5813 5812 5813 5814 5816 5819 5822 5825 5827 5827 5828 5830 5832 5832 5834 5841 5846 5846 5845 5847 5849 5852 5855 5857 5859 5859 5860 5861 5862 5863
5498 5501 5505 5510 5515 5521 5529 5537 5547 5556 5564 5575 5581 5582 5586 5593 5600 5607 5618 5622 5625 5633 5637 5640 5647 5652 5663 5674 5680 5688 5690 5690 5696 5703 5710 5715 5717 5719 5722 5726 5728 5729 5734 5740 5743 5747 5751 5750 5755 5769 5780 5786 5791 5795 5797 5801 5804 5806 5805 5805 5807 5809 5812 5816 5819 5821 5823 5823 5824 5827 5828 5829 5830 5834 5841 5843 5841 5843 5846 5850 5853 5854 5855 5856 5857 5859 5859 5860
5495 5498 5502 5506 5511 5517 5524 5532 5541 5550 5558 5566 5570 5574 5585 5596 5604 5613 5621 5622 5624 5630 5630 5634 5641 5645 5656 5667 5674 5680 5681 5683 5690 5695 5700 5706 5709 5713 5716 5718 5721 5726 5732 5733 5734 5739 5740 5742 5757 5772 5776 5781 5785 5788 5791 5793 5796 5797 5797 5799 5802 5805 5808 5812 5814 5816 5818 5819 5820 5823 5823 5824 5827 5828 5834 5838 5838 5840 5844 5847 5849 5850 5851 5853 5855 5856 5856 5856
5491 5495 5499 5502 5508 5514 5519 5527 5536 5542 5550 5559 5565 5574 5585 5595 5604 5613 5616 5617 5621 5624 5624 5630 5636 5642 5653 5660 5665 5673 5676 5680 5685 5687 5694 5700 5704 5708 5711 5713 5716 5723 5726 5723 5727 5732 5732 5744 5763 5767 5768 5773 5776 5779 5781 5783 5786 5787 5788 5792 5795 5800 5804 5806 5809 5812 5814 5814 5815 5817 5816 5817 5822 5824 5829 5835 5836 5838 5840 5843 5845 5846 5847 5850 5852 5852 5853 5854
5488 5492 5495 5499 5505 5509 5515 5522 5528 5534 5545 5556 5564 5573 5583 5591 5599 5606 5610 5612 5614 5617 5621 5627 5633 5639 5647 5654 5661 5668 5671 5676 5680 5685 5691 5695 5700 5704 5707 5711 5714 5717 5718 5719 5725 5727 5734 5751 5760 5759 5763 5767 5767 5769 5772 5775 5779 5780 5783 5788 5792 5797 5802 5803 5806 5809 5809 5808 5810 5811 5809 5811 5818 5821 5825 5832 5833 5834 5836 5838 5841 5843 5845 5847 5849 5849 5851 5851
5485 5489 5492 5496 5500 5505 5512 5515 5520 5532 5543 5551 5559 5569 5578 5586 5595 5602 5606 5606 5607 5611 5616 5621 5626 5630 5638 5648 5655 5660 5664 5668 5674 5680 5686 5691 5695 5698 5703 5707 5709 5711 5713 5718 5722 5725 5735 5747 5751 5754 5759 5758 5757 5761 5766 5771 5776 5777 5780 5787 5790 5794 5799 5800 5802 5803 5801 5801 5804 5806 5802 5805 5814 5819 5822 5828 5830 5830 5833 5834 5837 5840 5842 5843 5845 5847 5848 5847
5482 5485 5489 5492 5497 5502 5505 5508 5520 5531 5536 5544 5555 5564 5572 5581 5591 5598 5602 5600 5599 5602 5605 5611 5616 5621 5631 5640 5645 5653 5658 5659 5667 5675 5680 5685 5689 5695 5699 5700 5702 5707 5712 5717 5719 5721 5729 5738 5744 5749 5749 5749 5751 5755 5761 5770 5773 5772 5777 5784 5787 5791 5795 5796 5797 5796 5793 5793 5797 5801 5799 5799 5808 5816 5819 5824 5827 5827 5828 5830 5834 5837 5838 5839 5841 5843 5844 5844
5478 5482 5486 5489 5493 5496 5500 5509 5520 5523 5530 5542 5551 5558 5568 5578 5587 5594 5595 5591 5588 5593 5600 5605 5612 5619 5628 5633 5639 5646 5647 5652 5665 5670 5672 5679 5683 5689 5692 5692 5698 5704 5709 5712 5710 5713 5724 5733 5738 5739 5740 5742 5744 5749 5758 5766 5767 5767 5774 5780 5782 5786 5788 5789 5789 5786 5784 5787 5790 5795 5797 5795 5800 5812 5818 5820 5823 5824 5825 5827 5831 5833 5834 5835 5837 5839 5841 5841
5475 5478 5482 5486 5489 5494 5501 5510 5514 5519 5531 5543 5548 5556 5567 5575 5582 5586 5584 5578 5577 5587 5594 5600 5610 5620 5624 5628 5634 5639 5644 5656 5664 5663 5670 5678 5679 5684 5686 5688 5697 5704 5706 5704 5704 5714 5725 5730 5734 5736 5736 5735 5739 5747 5754 5760 5762 5762 5767 5773 5778 5780 5780 5781 5780 5777 5778 5780 5782 5790 5796 5793 5794 5807 5815 5816 5819 5821 5822 5824 5826 5829 5830 5832 5834 5835 5836 5837
5471 5475 5479 5483 5487 5492 5498 5503 5509 5519 5530 5537 5544 5555 5565 5572 5576 5577 5572 5566 5572 5583 5588 5595 5605 5611 5613 5620 5627 5633 5643 5654 5656 5661 5671 5671 5671 5678 5681 5688 5697 5699 5699 5700 5705 5715 5720 5725 5731 5732 5730 5732 5738 5743 5748 5755 5757 5756 5761 5768 5772 5772 5772 5773 5771 5771 5773 5772 5776 5788 5794 5791 5791 5801 5809 5811 5814 5817 5819 5821 5822 5825 5827 5828 5830 5830 5831 5832
5468 5472 5476 5479 5483 5488 5492 5497 5505 5515 5523 5530 5539 5549 5559 5564 5565 5563 5557 5557 5568 5579 5583 5590 5597 5601 5607 5614 5619 5626 5637 5644 5649 5660 5664 5662 5667 5672 5677 5687 5691 5691 5693 5696 5701 5706 5711 5719 5722 5721 5723 5730 5736 5738 5745 5751 5749 5750 5756 5762 5765 5765 5766 5767 5765 5768 5765 5763 5776 5789 5791 5788 5785 5791 5800 5805 5810 5814 5816 5818 5819 5821 5823 5824 5825 5826 5827 5828
5464 5468 5472 5475 5480 5485 5489 5496 5502 5510 5518 5527 5535 5543 5549 5552 5551 5549 5546 5553 5568 5574 5577 5584 5590 5597 5606 5610 5614 5621 5630 5635 5643 5651 5654 5658 5665 5666 5672 5678 5679 5683 5688 5690 5694 5697 5704 5709 5710 5714 5720 5724 5727 5731 5738 5740 5738 5743 5749 5753 5758 5759 5759 5759 5759 5759 5753 5758 5777 5785 5784 5780 5774 5781 5793 5799 5805 5811 5813 5815 5817 5819 5819 5820 5821 5822 5822 5822
5461 5465 5469 5473 5478 5482 5488 5496 5502 5507 5514 5523 5531 5536 5539 5539 5537 5537 5542 5555 5564 5565 5571 5580 5587 5596 5603 5606 5612 5620 5625 5629 5635 5643 5648 5655 5658 5659 5665 5668 5670 5675 5678 5683 5689 5692 5698 5703 5705 5710 5713 5715 5719 5723 5726 5728 5729 5734 5740 5745 5749 5749 5749 5748 5749 5747 5746 5758 5772 5776 5775 5767 5763 5776 5788 5793 5800 5805 5809 5811 5814 5816 5815 5816 5817 5816 5817 5817
5458 5462 5466 5470 5475 5481 5486 5492 5496 5501 5509 5517 5523 5527 5530 5528 5524 5529 5541 5551 5554 5560 5572 5580 5588 5597 5600 5602 5608 5615 5621 5626 5630 5637 5642 5648 5653 5656 5661 5664 5668 5671 5674 5681 5687 5688 5694 5698 5699 5701 5703 5708 5712 5714 5717 5721 5724 5727 5733 5738 5740 5741 5739 5738 5740 5739 5741 5753 5761 5768 5766 5752 5756 5775 5782 5788 5794 5797 5803 5806 5808 5811 5812 5812 5812 5812 5813 5813
5455 5459 5463 5468 5473 5478 5482 5485 5490 5498 5505 5510 5514 5518 5519 5517 5520 5530 5539 5544 5551 5563 5573 5579 5586 5592 5594 5599 5606 5611 5616 5619 5626 5633 5637 5640 5643 5647 5654 5658 5662 5666 5672 5678 5680 5683 5688 5689 5691 5696 5700 5705 5708 5711 5717 5722 5724 5725 5731 5735 5733 5735 5735 5734 5738 5736 5740 5750 5755 5761 5752 5740 5758 5776 5778 5786 5790 5790 5795 5798 5802 5806 5806 5807 5807 5808 5809 5808
5452 5456 5460 5464 5468 5472 5477 5481 5488 5495 5501 5505 5508 5508 5507 5510 5520 5529 5533 5539 5551 5562 5569 5576 5581 5584 5588 5596 5603 5607 5610 5614 5621 5628 5630 5633 5636 5642 5648 5651 5654 5660 5666 5670 5673 5679 5684 5685 5691 5697 5700 5705 5707 5711 5715 5717 5717 5719 5725 5726 5724 5733 5736 5734 5734 5735 5742 5746 5746 5750 5742 5741 5765 5774 5773 5781 5783 5783 5786 5788 5794 5798 5799 5802 5803 5804 5804 5803
5449 5453 5457 5461 5465 5470 5475 5480 5485 5490 5496 5500 5501 5500 5504 5513 5522 5528 5533 5542 5550 5559 5567 5572 5575 5578 5583 5589 5593 5598 5603 5610 5618 5621 5624 5629 5634 5640 5645 5648 5652 5657 5662 5667 5670 5676 5680 5683 5689 5693 5697 5702 5704 5707 5709 5709 5712 5714 5715 5715 5723 5734 5732 5726 5728 5731 5734 5733 5733 5738 5737 5744 5761 5763 5765 5773 5773 5777 5779 5780 5787 5790 5791 5796 5798 5799 5798 5797
5446 5450 5454 5457 5462 5467 5473 5478 5482 5487 5491 5494 5494 5498 5506 5516 5522 5528 5536 5543 5551 5559 5565 5567 5569 5572 5577 5582 5587 5592 5598 5605 5611 5615 5618 5623 5626 5631 5637 5642 5649 5654 5660 5665 5668 5673 5677 5680 5684 5688 5692 5696 5698 5701 5703 5705 5708 5708 5707 5715 5726 5727 5720 5720 5724 5724 5723 5723 5725 5732 5736 5743 5751 5753 5760 5766 5767 5773 5775 5776 5780 5782 5785 5790 5791 5791 5790 5790
5444 5448 5450 5454 5459 5464 5470 5475 5480 5484 5487 5487 5491 5499 5508 5515 5522 5528 5534 5540 5549 5555 5559 5562 5566 5571 5576 5580 5585 5591 5596 5601 5605 5608 5613 5616 5618 5624 5631 5636 5645 5652 5657 5661 5664 5668 5673 5676 5679 5683 5685 5689 5692 5695 5695 5697 5700 5701 5706 5715 5717 5711 5711 5717 5716 5714 5716 5717 5720 5728 5732 5735 5740 5748 5755 5760 5766 5770 5770 5772 5773 5773 5778 5781 5782 5782 5781 5783
5442 5444 5447 5451 5457 5461 5466 5472 5477 5480 5480 5480 5487 5497 5506 5514 5521 5527 5533 5538 5545 5551 5555 5559 5565 5570 5574 5580 5586 5590 5594 5599 5602 5604 5607 5610 5614 5623 5630 5635 5644 5650 5654 5658 5660 5664 5668 5671 5673 5677 5680 5683 5685 5685 5686 5691 5695 5697 5701 5705 5704 5705 5710 5711 5709 5711 5713 5713 5716 5722 5723 5723 5734 5748 5752 5754 5762 5764 5763 5765 5764 5765 5770 5772 5773 5774 5774 5775
5439 5442 5446 5450 5455 5458 5464 5469 5472 5472 5472 5478 5487 5494 5503 5512 5518 5524 5530 5535 5541 5547 5551 5557 5562 5567 5571 5577 5582 5586 5591 5597 5600 5602 5605 5609 5616 5623 5627 5632 5640 5647 5651 5655 5656 5659 5663 5665 5667 5671 5674 5675 5676 5677 5683 5689 5691 5693 5695 5697 5699 5702 5705 5705 5705 5707 5707 5707 5711 5713 5713 5718 5730 5744 5747 5748 5753 5755 5755 5757 5758 5759 5763 5763 5765 5767 5767 5768
5435 5440 5445 5449 5452 5456 5460 5463 5463 5465 5470 5478 5486 5492 5500 5508 5514 5520 5524 5529 5537 5544 5550 5556 5560 5565 5569 5573 5577 5582 5587 5590 5593 5597 5601 5606 5612 5617 5622 5630 5637 5643 5646 5647 5650 5654 5657 5660 5664 5666 5667 5669 5672 5676 5682 5684 5684 5689 5693 5694 5697 5700 5700 5699 5698 5699 5701 5703 5706 5707 5707 5714 5726 5736 5741 5743 5745 5747 5748 5751 5754 5755 5756 5757 5758 5759 5759 5761
5434 5439 5444 5447 5450 5453 5456 5457 5459 5463 5469 5476 5483 5492 5499 5504 5510 5516 5520 5526 5534 5542 5548 5553 5557 5561 5566 5570 5575 5580 5583 5585 5589 5593 5598 5605 5611 5616 5624 5632 5636 5640 5642 5643 5648 5653 5656 5657 5659 5661 5663 5666 5670 5673 5676 5677 5680 5685 5686 5687 5692 5693 5693 5694 5693 5696 5698 5698 5703 5703 5699 5707 5722 5730 5735 5737 5739 5742 5744 5746 5748 5749 5748 5749 5751 5751 5752 5753
5434 5439 5443 5446 5449 5452 5453 5454 5458 5463 5468 5476 5484 5491 5497 5502 5509 5514 5517 5522 5530 5537 5543 5549 5553 5558 5563 5567 5570 5574 5578 5582 5586 5590 5596 5603 5608 5614 5621 5626 5629 5634 5635 5637 5643 5646 5648 5650 5652 5655 5659 5661 5664 5667 5669 5671 5675 5676 5676 5681 5685 5686 5688 5691 5690 5693 5693 5691 5698 5696 5689 5702 5721 5725 5727 5730 5732 5734 5736 5737 5739 5740 5740 5741 5741 5744 5746 5746
5434 5437 5441 5443 5445 5447 5449 5453 5458 5463 5469 5476 5482 5487 5492 5498 5505 5511 5514 5519 5526 5533 5539 5545 5550 5555 5560 5564 5567 5571 5575 5579 5583 5587 5593 5598 5603 5609 5614 5618 5621 5625 5627 5630 5636 5639 5641 5644 5646 5649 5652 5653 5655 5657 5660 5663 5666 5668 5672 5677 5680 5682 5685 5685 5685 5688 5685 5684 5691 5689 5685 5702 5718 5719 5720 5723 5723 5726 5728 5729 5730 5731 5732 5734 5735 5738 5740 5741
5432 5435 5439 5440 5441 5444 5449 5454 5459 5463 5468 5472 5478 5485 5490 5494 5499 5506 5511 5516 5523 5530 5537 5542 5548 5553 5557 5560 5564 5567 5570 5573 5579 5584 5589 5594 5599 5604 5608 5612 5616 5619 5624 5629 5633 5635 5636 5637 5638 5641 5643 5645 5650 5654 5658 5663 5665 5666 5669 5672 5675 5677 5679 5679 5681 5681 5678 5680 5686 5683 5685 5701 5712 5712 5715 5717 5716 5719 5722 5722 5723 5724 5726 5728 5730 5732 5734 5735
5430 5434 5437 5438 5439 5443 5448 5453 5458 5462 5466 5471 5476 5482 5487 5491 5497 5503 5508 5512 5518 5526 5533 5540 5545 5549 5551 5554 5558 5561 5565 5570 5575 5580 5585 5591 5596 5600 5604 5608 5611 5615 5620 5623 5625 5626 5626 5627 5631 5634 5637 5643 5651 5655 5658 5660 5660 5661 5666 5669 5671 5672 5673 5674 5674 5672 5673 5677 5678 5678 5685 5696 5703 5708 5711 5711 5710 5713 5715 5717 5719 5720 5721 5723 5724 5725 5725 5726
5429 5432 5435 5437 5439 5442 5445 5449 5455 5460 5465 5470 5474 5479 5484 5490 5495 5500 5504 5508 5514 5521 5528 5535 5540 5543 5546 5550 5554 5558 5562 5567 5571 5576 5581 5586 5591 5595 5598 5602 5605 5608 5612 5614 5616 5618 5618 5620 5625 5629 5632 5640 5648 5649 5649 5651 5652 5655 5660 5662 5663 5665 5667 5666 5666 5667 5671 5672 5670 5675 5682 5686 5696 5706 5707 5704 5704 5705 5709 5713 5714 5715 5716 5716 5716 5715 5717 5718
5428 5431 5434 5437 5439 5442 5445 5449 5454 5458 5463 5467 5473 5477 5482 5488 5492 5496 5502 5507 5512 5518 5523 5528 5533 5537 5542 5548 5552 5556 5560 5563 5567 5572 5576 5580 5585 5589 5592 5595 5597 5600 5604 5606 5608 5611 5612 5614 5621 5625 5629 5636 5642 5643 5642 5645 5647 5648 5652 5654 5655 5658 5658 5658 5661 5665 5667 5665 5666 5672 5675 5679 5692 5702 5700 5700 5699 5698 5702 5707 5708 5708 5708 5708 5707 5707 5709 5709
5428 5431 5433 5436 5440 5444 5448 5453 5456 5458 5461 5464 5470 5474 5479 5485 5489 5494 5500 5505 5509 5514 5519 5523 5529 5535 5540 5545 5549 5552 5556 5560 5565 5570 5574 5578 5581 5584 5586 5588 5592 5596 5599 5600 5603 5607 5607 5611 5618 5622 5624 5630 5636 5636 5637 5640 5642 5642 5644 5647 5648 5649 5650 5650 5654 5657 5658 5657 5660 5667 5669 5674 5686 5695 5696 5695 5691 5690 5695 5699 5699 5699 5699 5699 5700 5700 5700 5699
5428 5430 5433 5435 5439 5443 5447 5450 5453 5457 5459 5463 5467 5472 5477 5483 5488 5493 5499 5503 5507 5511 5516 5522 5528 5534 5538 5542 5545 5549 5554 5561 5567 5571 5574 5576 5578 5580 5582 5584 5589 5593 5594 5594 5598 5601 5603 5608 5615 5617 5618 5622 5628 5629 5630 5633 5635 5635 5637 5639 5639 5641 5642 5643 5647 5651 5652 5652 5657 5662 5661 5665 5679 5688 5689 5686 5683 5686 5690 5690 5690 5692 5692 5692 5692 5692 5692 5691
5427 5429 5431 5434 5438 5441 5444 5447 5450 5453 5456 5460 5464 5469 5475 5481 5488 5493 5497 5501 5506 5511 5518 5524 5530 5533 5536 5538 5541 5547 5555 5561 5564 5567 5570 5572 5575 5578 5579 5582 5585 5586 5587 5589 5592 5595 5599 5603 5608 5610 5609 5613 5621 5623 5622 5625 5627 5624 5624 5626 5629 5633 5637 5640 5645 5648 5647 5648 5651 5651 5650 5660 5675 5679 5676 5677 5680 5682 5683 5681 5680 5682 5683 5684 5685 5684 5684 5683
5426 5428 5431 5433 5436 5439 5442 5445 5447 5450 5454 5460 5465 5469 5474 5480 5486 5490 5493 5497 5502 5508 5516 5522 5526 5529 5531 5534 5540 5548 5554 5557 5558 5561 5563 5565 5568 5570 5571 5576 5579 5579 5581 5584 5586 5589 5593 5596 5599 5601 5600 5607 5616 5616 5614 5617 5612 5606 5611 5621 5626 5631 5635 5638 5641 5643 5644 5643 5643 5642 5645 5658 5667 5665 5666 5673 5677 5675 5674 5671 5672 5675 5676 5676 5676 5677 5676 5676